Voltar ao catálogo

KUIPER-00296

AtivoComunicaçõesLEO
NORAD 68595·PAYLOAD·🇺🇸 United States

Lançado Apr 4, 2026 de Cape Canaveral Space Force Station

Loading…

Próximas Passagens (próximas 24 horas)

TLE

AtualizadoSource: CelesTrak SupGP

Época: Sep 14, 2026, 21:20 UTC

1 68595C 26072Y   26257.88935185  .00003159  00000+0  41359-3 0  2578
2 68595  51.8993 121.5041 0000819 106.1794 318.3736 14.79922245    17

Acompanhe KUIPER-00296 em tempo real com AllMySat

Download on the App Store